TJS-3

Last updated on Sun Apr 12 2026 00:02:55 GMT+0000 (Coordinated Universal Time)

1 43874U 18110A 26101.80805700 -.00000350 00000+0 00000+0 0 9992 2 43874 2.3729 81.2678 0000722 12.2636 144.3999 1.00770335 26759
UTC large
Height (km)
Speed (km/s)
/
Latitude / Longitude
Inclination (degrees)
Orbital Period (minutes)
Azimuth
Elevation
Range (km)
Doppler Factor

Next 0 passes for location: London (51.5072 / 0.1276)

Sorry there are no passes over London.
TJS-3